Printer-friendly version

IAU Minor Planet Center

Minor Planet Center

MPEC 2005-N09 : 2005 NG

The following Minor Planet Electronic Circular may be linked-to from your own Web pages, but must not otherwise be redistributed electronically.


Read MPEC 2005-N08 Read MPEC 2005-N10


M.P.E.C. 2005-N09                                Issued 2005 July 3, 12:32 UT

     The Minor Planet Electronic Circulars contain information on unusual
         minor planets and routine data on comets.  They are published
   on behalf of Commission 20 of the International Astronomical Union by the
          Minor Planet Center, Smithsonian Astrophysical Observatory,
                          Cambridge, MA 02138, U.S.A.

                  Supported in part by the Brinson Foundation
             Prepared using the Tamkin Foundation Computer Network

                              MPC@CFA.HARVARD.EDU
          URL http://cfa-www.harvard.edu/iau/mpc.html  ISSN 1523-6714

                                    2005 NG

Observations:
     K05N00G* C2005 07 02.24435 16 19 10.81 -06 01 01.5          18.4 V EN009703
     K05N00G  C2005 07 02.25082 16 19 25.53 -06 00 34.2          17.6 V EN009703
     K05N00G  C2005 07 02.25728 16 19 40.33 -06 00 06.6          17.7 V EN009703
     K05N00G  C2005 07 02.26377 16 19 55.23 -05 59 40.1          18.3 V EN009703
     K05N00G  C2005 07 02.31465 16 21 51.04 -05 56 05.9          17.9 V EN009703
     K05N00G  C2005 07 02.31499 16 21 51.80 -05 56 04.0          17.3 V EN009703
     K05N00G  C2005 07 02.31535 16 21 52.59 -05 56 03.6          18.0 V EN009703
     K05N00G  C2005 07 02.31570 16 21 53.46 -05 56 01.5          17.7 V EN009703
     K05N00G  C2005 07 02.83279 16 40 43.95 -05 22 42.9          17.8 R EN009599
     K05N00G  C2005 07 02.83432 16 40 46.91 -05 22 36.8          17.8 R EN009599
     K05N00G  C2005 07 02.83510 16 40 48.46 -05 22 33.7          18.1 R EN009599
     K05N00G  C2005 07 02.83587 16 40 49.81 -05 22 30.5          18.2 R EN009599
     K05N00G  C2005 07 02.92240 16 43 36.69 -05 17 34.7                 EN009J95
     K05N00G  C2005 07 02.93074 16 43 52.30 -05 17 03.8                 EN009J95
     K05N00G  C2005 07 02.93190 16 43 53.39 -05 16 27.8          18.2 R EN009176
     K05N00G  C2005 07 02.93220 16 43 53.94 -05 16 26.8          18.2 R EN009176
     K05N00G  C2005 07 02.93250 16 43 54.50 -05 16 25.9          18.5 R EN009176
     K05N00G  C2005 07 02.93280 16 43 55.05 -05 16 25.0          18.4 R EN009176
     K05N00G  C2005 07 02.93310 16 43 55.61 -05 16 24.0          18.7 R EN009176
     K05N00G  C2005 07 02.94029 16 44 06.80 -05 16 05.1          17.9 R EN009599
     K05N00G  C2005 07 02.94105 16 44 08.27 -05 16 00.6          18.1 R EN009599
     K05N00G  C2005 07 02.94644 16 44 21.65 -05 16 06.0          18.7 R EN009J95
     K05N00G  C2005 07 02.94772 16 44 20.67 -05 15 36.5          18.0 R EN009599
     K05N00G  C2005 07 03.23177 16 53 09.23 -04 58 22.2          18.4 R EN009854
     K05N00G  C2005 07 03.23425 16 53 13.60 -04 58 13.9          18.5 R EN009854
     K05N00G  C2005 07 03.23724 16 53 18.53 -04 58 04.2          18.5 R EN009854
     K05N00G 5C2005 07 03.30573 16 55 14.16 -04 54 17.5          17.8 R EN009673
     K05N00G 5C2005 07 03.31429 16 55 28.31 -04 53 47.8                 EN009673
     K05N00G 5C2005 07 03.31927 16 55 36.41 -04 53 31.0                 EN009673
     K05N00G 5C2005 07 03.32587 16 55 47.31 -04 53 08.6                 EN009673
     K05N00G 5C2005 07 03.33194 16 55 57.36 -04 52 47.9                 EN009673

Observer details:
176 Observatori Astronomic de Consell.  Observers A. Lopez, R. Pacheco.
    0.41-m f/4 reflector + CCD.
599 Campo Imperatore-CINEOS.  Observer A. Boattini.  Measurers A. Boattini,
    R. Leoni, A. Di Paola, E. Dotto.  0.60-m f/3.1 Schmidt + CCD.
673 Table Mountain Observatory, Wrightwood.  Observer J. Young.  0.6-m
    reflector + CCD.
703 Catalina Sky Survey.  Observer A. Odell.  Measurers E. C. Beshore,
    C. M. Casey, E. J. Christensen, G. J. Garradd, A. D. Grauer, R. E. Hill,
    S. M. Larson, R. H. McNaught.  0.68-m Schmidt + CCD.
854 Sabino Canyon Observatory, Tucson.  Observer J. E. McGaha.  0.36-m f/10.0
    Schmidt-Cassegrain + CCD.
J95 Great Shefford.  Observer P. Birtwhistle.  0.40-m f/6.0 Schmidt-Cassegrain
    + CCD.

Orbital elements:
2005 NG
Epoch 2005 Aug. 18.0 TT = JDT 2453600.5                 MPC
M  37.73981              (2000.0)            P               Q
n   0.41558122     Peri.  305.91027     -0.73282107     +0.66462188
a   1.7784109      Node   276.22822     -0.56744558     -0.71517946
e   0.5043339      Incl.    8.43243     -0.37547142     -0.21632405
P   2.37           H   24.1           G   0.15           U   7
Residuals in seconds of arc
050702 703  1.3+  0.2+    050702 599  0.9-  0.5+    050702 599  0.0   0.2+
050702 703  0.7-  0.3+    050702 J95  0.0   0.0     050703 854  1.1-  0.3+
050702 703  0.8-  0.7+    050702 J95  0.3-  0.2+    050703 854  1.9+  0.1+
050702 703  0.2-  0.1-    050702 176  0.2+  0.1-    050703 854  0.4+  0.4-
050702 703  0.1+  0.2-    050702 176  0.1+  0.3-    050703 673  0.1+  0.3-
050702 703  0.0   0.3+    050702 176  0.1+  0.5-    050703 673  0.5+  0.4+
050702 703  0.4-  0.9-    050702 176  0.0   0.7-    050703 673  1.2-  0.2+
050702 703  0.8+  0.2-    050702 176  0.1+  0.8-    050703 673  0.7-  0.2+
050702 599  0.1-  0.4-    050702 599  0.9-  1.0-    050703 673  0.3+  0.3+
050702 599  0.2+  0.0     050702 599  0.0   0.7+
050702 599  1.0+  0.2+    050702 J95  0.2+  0.4+

Ephemeris:
2005 NG                  a,e,i = 1.78, 0.50, 8                   q = 0.8815
Date    TT    R. A. (2000) Decl.     Delta      r     Elong.  Phase     V
2005 06 29    13 06.09   -08 59.0    0.0244   1.022   101.4    77.3    18.8
2005 07 01    15 19.37   -07 29.2    0.0270   1.034   129.4    49.4    18.2
2005 07 03    16 46.07   -05 09.5    0.0361   1.047   145.6    33.3    18.4
2005 07 05    17 33.73   -03 34.8    0.0482   1.060   152.2    26.6    18.8
2005 07 07    18 01.60   -02 37.7    0.0616   1.073   154.8    23.8    19.3
2005 07 09    18 19.42   -02 02.8    0.0757   1.086   155.9    22.5    19.8
2005 07 11    18 31.70   -01 41.4    0.0903   1.100   156.3    21.8    20.1
2005 07 13    18 40.64   -01 28.6    0.105    1.114   156.4    21.4    20.5
2005 07 15    18 47.47   -01 21.7    0.120    1.128   156.4    21.1    20.8
2005 07 17    18 52.87   -01 18.9    0.136    1.142   156.3    20.9    21.1
2005 07 19    18 57.28   -01 19.2    0.152    1.156   156.1    20.8    21.3
2005 07 21    19 00.97   -01 21.9    0.167    1.171   155.8    20.8    21.6
2005 07 23    19 04.13   -01 26.5    0.184    1.185   155.4    20.9    21.8
2005 07 25    19 06.90   -01 32.7    0.200    1.200   155.0    21.0    22.0
2005 07 27    19 09.38   -01 40.1    0.217    1.215   154.4    21.2    22.2
2005 07 29    19 11.63   -01 48.5    0.234    1.230   153.8    21.4    22.4

Timothy B. Spahr             (C) Copyright 2005 MPC           M.P.E.C. 2005-N09

Read MPEC 2005-N08 Read MPEC 2005-N10


Our Web policy. Index to the CBAT/MPC/ICQ pages.


Valid HTML 4.01!